User: anonymous   Login
Location: Brainerd
(46.3580°N, 94.2010°W)
Time: 15:57:53
(UTC-05:00)
Language:

CZ-4C R/B - Orbit

View from above orbital plane
View from above orbital plane
View from above satellite
View from above satellite

Ground track
Ground track

The orbit data is extracted from the following two-line orbital elements,

1 32290U 07055B   17113.88998633 +.00005183 +00000-0 +14719-3 0  9992
2 32290 097.5256 219.2265 0066451 326.8912 032.8178 15.34444634523414
Epoch (UTC): 23 April 2017 21:21:34
Eccentricity: 0.0066451
inclination: 97.5256°
perigee height: 417 km
apogee height: 508 km
right ascension of ascending node: 219.2265°
argument of perigee: 326.8912°
revolutions per day: 15.34444634
mean anomaly at epoch: 32.8178°
orbit number at epoch: 52341

The dashed part of the orbit path shows where the satellite is in the earth's shadow,  

DLR